Jerome, ID

7:31 AM MDT on April 24, 2017 (GMT -0600)
Jerome County

Weather History for KJER - October, 2012

Change the Weather History Date:

Monday, October 15, 2012

  Actual Average Record
Temperature  
Mean Temperature 58 °F 49 °F  
Max Temperature 69 °F 61 °F 85 °F (2005)
Min Temperature 47 °F 38 °F 21 °F (1969)
Degree Days  
Heating Degree Days 7 16  
Month to date heating degree days 174 196  
Since 1 July heating degree days 217 399  
Cooling Degree Days 0 0  
Month to date cooling degree days 0 0  
Year to date cooling degree days 750 509  
Growing Degree Days 8 (Base 50)    
Moisture  
Dew Point 38 °F    
Average Humidity 47    
Maximum Humidity 61    
Minimum Humidity 33    
Precipitation  
Precipitation 0.00 in 0.03 in 0.21 in (1948)
Month to date precipitation T 0.34  
Year to date precipitation 7.13 7.63  
Sea Level Pressure  
Sea Level Pressure 30.00 in    
Wind  
Wind Speed 9 mph (South)    
Max Wind Speed 22 mph    
Max Gust Speed 29 mph    
Visibility 10 miles    
Events      
T = Trace of Precipitation, MM = Missing Value Source: NWS Daily Summary

Daily Weather History Graph

Daily Weather History Graph

Search for Another Location

Airport or City:

Trip Planner

Search our weather history database for the weather conditions in past years. The results will help you decide how hot, cold, wet, or windy it might be!

Date:

Astronomy

Oct. 15, 2012 Rise Set
Actual Time 7:51 AM MDT 6:54 PM MDT
Civil Twilight 7:23 AM MDT 7:22 PM MDT
Nautical Twilight 6:50 AM MDT 7:55 PM MDT
Astronomical Twilight 6:17 AM MDT 8:28 PM MDT
Moon 8:08 AM MDT (10/15) 6:55 PM MDT (10/15)
Length of Visible Light 11h 59m
Length of Day
11h 02m
New Moon, 0% of the Moon is Illuminated
Oct 15
New Moon
Oct 21
First Quarter
Oct 29
Full
Nov 6
Last Quarter
Nov 13
New

Hourly Weather History & Observations

Time (MDT) Temp. Dew Point Humidity Pressure Visibility Wind Dir Wind Speed Gust Speed Precip Events Conditions
12:53 AM 55.9 °F 34.0 °F 44% 30.03 in 10.0 mi SE 8.1 mph - N/A   Clear
1:53 AM 51.1 °F 32.0 °F 48% 30.02 in 10.0 mi SE 5.8 mph - N/A   Clear
2:53 AM 48.9 °F 33.1 °F 54% 30.01 in 10.0 mi East 3.5 mph - N/A   Clear
3:53 AM 48.0 °F 35.1 °F 61% 29.99 in 10.0 mi Calm Calm - N/A   Clear
4:53 AM 54.0 °F 34.0 °F 47% 29.96 in 10.0 mi SE 5.8 mph - N/A   Clear
5:53 AM 53.1 °F 33.1 °F 47% 29.97 in 10.0 mi SSE 8.1 mph - N/A   Clear
6:53 AM 53.1 °F 33.1 °F 47% 30.01 in 10.0 mi South 6.9 mph - N/A   Clear
7:53 AM 53.1 °F 33.1 °F 47% 30.03 in 10.0 mi South 6.9 mph - N/A   Mostly Cloudy
8:53 AM 54.0 °F 33.1 °F 45% 30.05 in 10.0 mi WSW 10.4 mph - N/A   Mostly Cloudy
9:53 AM 55.9 °F 35.1 °F 45% 30.06 in 10.0 mi WSW 8.1 mph - N/A   Mostly Cloudy
10:53 AM 60.1 °F 39.0 °F 46% 30.08 in 10.0 mi WSW 16.1 mph - N/A   Mostly Cloudy
11:53 AM 61.0 °F 42.1 °F 50% 30.07 in 10.0 mi WSW 18.4 mph 26.5 mph N/A   Mostly Cloudy
12:53 PM 64.9 °F 43.0 °F 45% 30.05 in 10.0 mi West 18.4 mph 26.5 mph N/A   Clear
1:53 PM 66.0 °F 43.0 °F 43% 30.04 in 10.0 mi WSW 16.1 mph - N/A   Clear
2:53 PM 66.9 °F 41.0 °F 39% 30.02 in 10.0 mi West 18.4 mph 23.0 mph N/A   Clear
3:53 PM 68.0 °F 41.0 °F 37% 30.00 in 10.0 mi WSW 12.7 mph - N/A   Clear
4:53 PM 69.1 °F 39.9 °F 35% 29.96 in 10.0 mi SW 9.2 mph - N/A   Clear
5:53 PM 68.0 °F 39.9 °F 36% 29.95 in 10.0 mi West 9.2 mph - N/A   Clear
6:53 PM 62.1 °F 39.9 °F 44% 29.96 in 10.0 mi SSW 4.6 mph - N/A   Clear
7:53 PM 61.0 °F 41.0 °F 48% 29.98 in 10.0 mi SSE 4.6 mph - N/A   Overcast
8:53 PM 59.0 °F 39.9 °F 49% 29.96 in 10.0 mi SE 5.8 mph - N/A   Clear
9:53 PM 55.9 °F 39.9 °F 55% 29.95 in 10.0 mi East 8.1 mph - N/A   Clear
10:53 PM 55.0 °F 39.9 °F 57% 29.93 in 10.0 mi East 6.9 mph - N/A   Clear
11:53 PM 55.9 °F 41.0 °F 57% 29.92 in 10.0 mi ESE 5.8 mph - N/A   Mostly Cloudy